TimeMST,TemperatureF,Dew PointF,Humidity,Sea Level PressureIn,VisibilityMPH,Wind Direction,Wind SpeedMPH,Gust SpeedMPH,PrecipitationIn,Events,Conditions,WindDirDegrees,DateUTC
9:34 AM,10.4,8.6,92,29.66,-9999.0,North,-9999.0,-,N/A,,Overcast,0,2013-02-21 16:34:00
9:54 AM,10.4,8.6,92,29.66,-9999.0,North,-9999.0,-,N/A,,Overcast,0,2013-02-21 16:54:00
10:15 AM,10.4,8.6,92,29.67,-9999.0,North,-9999.0,-,N/A,,Overcast,0,2013-02-21 17:15:00
10:34 AM,10.4,8.6,92,29.67,-9999.0,North,-9999.0,-,N/A,,Overcast,0,2013-02-21 17:34:00
11:14 AM,12.2,8.6,85,29.68,-9999.0,North,-9999.0,-,N/A,,Overcast,0,2013-02-21 18:14:00
11:34 AM,12.2,8.6,85,29.69,-9999.0,North,-9999.0,-,N/A,,Overcast,0,2013-02-21 18:34:00
11:54 AM,12.2,8.6,85,29.68,-9999.0,North,-9999.0,-,N/A,,Overcast,0,2013-02-21 18:54:00
12:14 PM,12.2,8.6,85,29.69,-9999.0,North,-9999.0,-,N/A,,Overcast,0,2013-02-21 19:14:00
12:35 PM,12.2,8.6,85,29.69,-9999.0,North,-9999.0,-,N/A,,Overcast,0,2013-02-21 19:35:00
12:55 PM,12.2,8.6,85,29.68,-9999.0,North,-9999.0,-,N/A,,Overcast,0,2013-02-21 19:55:00
1:15 PM,12.2,8.6,85,29.68,-9999.0,North,-9999.0,-,N/A,,Overcast,0,2013-02-21 20:15:00
1:35 PM,12.2,8.6,85,29.68,-9999.0,North,-9999.0,-,N/A,,Overcast,0,2013-02-21 20:35:00
1:54 PM,12.2,8.6,85,29.68,-9999.0,North,-9999.0,-,N/A,,Overcast,0,2013-02-21 20:54:00
2:13 PM,10.4,8.6,92,29.68,-9999.0,North,-9999.0,-,N/A,,Overcast,0,2013-02-21 21:13:00
2:34 PM,12.2,8.6,85,29.69,-9999.0,North,-9999.0,-,N/A,,Overcast,0,2013-02-21 21:34:00
2:55 PM,12.2,8.6,85,29.69,-9999.0,North,-9999.0,-,N/A,,Overcast,0,2013-02-21 21:55:00
3:15 PM,12.2,8.6,85,29.69,-9999.0,North,-9999.0,-,N/A,,Overcast,0,2013-02-21 22:15:00
3:34 PM,12.2,8.6,85,29.69,-9999.0,North,-9999.0,-,N/A,,Mostly Cloudy,0,2013-02-21 22:34:00
3:55 PM,12.2,8.6,85,29.70,-9999.0,North,-9999.0,-,N/A,,Overcast,0,2013-02-21 22:55:00
4:13 PM,12.2,8.6,85,29.71,-9999.0,North,-9999.0,-,N/A,,Overcast,0,2013-02-21 23:13:00
4:35 PM,12.2,8.6,85,29.73,-9999.0,North,-9999.0,-,N/A,,Overcast,0,2013-02-21 23:35:00
4:55 PM,12.2,8.6,85,29.73,-9999.0,North,-9999.0,-,N/A,,Overcast,0,2013-02-21 23:55:00
5:16 PM,12.2,8.6,85,29.75,-9999.0,North,-9999.0,-,N/A,,Overcast,0,2013-02-22 00:16:00
5:35 PM,12.2,8.6,85,29.75,-9999.0,North,-9999.0,-,N/A,,Overcast,0,2013-02-22 00:35:00
5:55 PM,10.4,8.6,92,29.76,-9999.0,North,-9999.0,-,N/A,,Overcast,0,2013-02-22 00:55:00
6:15 PM,10.4,8.6,92,29.77,-9999.0,North,-9999.0,-,N/A,,Overcast,0,2013-02-22 01:15:00
6:35 PM,10.4,8.6,92,29.78,-9999.0,North,-9999.0,-,N/A,,Overcast,0,2013-02-22 01:35:00
6:55 PM,10.4,6.8,85,29.78,-9999.0,North,-9999.0,-,N/A,,Overcast,0,2013-02-22 01:55:00
7:15 PM,10.4,6.8,85,29.80,-9999.0,North,-9999.0,-,N/A,,Overcast,0,2013-02-22 02:15:00
7:35 PM,10.4,6.8,85,29.80,-9999.0,North,-9999.0,-,N/A,,Overcast,0,2013-02-22 02:35:00
7:55 PM,10.4,6.8,85,29.80,-9999.0,North,-9999.0,-,N/A,,Overcast,0,2013-02-22 02:55:00
8:15 PM,10.4,5.0,79,29.81,-9999.0,North,-9999.0,-,N/A,,Overcast,0,2013-02-22 03:15:00
8:36 PM,10.4,5.0,79,29.81,-9999.0,North,-9999.0,-,N/A,,Overcast,0,2013-02-22 03:36:00
8:55 PM,8.6,5.0,85,29.82,-9999.0,North,-9999.0,-,N/A,,Overcast,0,2013-02-22 03:55:00
9:16 PM,8.6,5.0,85,29.82,-9999.0,North,-9999.0,-,N/A,,Overcast,0,2013-02-22 04:16:00
9:36 PM,8.6,5.0,85,29.83,-9999.0,North,-9999.0,-,N/A,,Overcast,0,2013-02-22 04:36:00
9:56 PM,8.6,5.0,85,29.82,-9999.0,North,-9999.0,-,N/A,,Overcast,0,2013-02-22 04:56:00
10:14 PM,8.6,5.0,85,29.82,-9999.0,North,-9999.0,-,N/A,,Overcast,0,2013-02-22 05:14:00
10:35 PM,8.6,5.0,85,29.81,-9999.0,North,-9999.0,-,N/A,,Overcast,0,2013-02-22 05:35:00
10:55 PM,8.6,5.0,85,29.82,-9999.0,North,-9999.0,-,N/A,,Overcast,0,2013-02-22 05:55:00
11:15 PM,8.6,5.0,85,29.81,-9999.0,North,-9999.0,-,N/A,,Overcast,0,2013-02-22 06:15:00
11:36 PM,8.6,3.2,79,29.81,-9999.0,North,-9999.0,-,N/A,,Overcast,0,2013-02-22 06:36:00
11:55 PM,8.6,3.2,79,29.81,-9999.0,North,-9999.0,-,N/A,,Overcast,0,2013-02-22 06:55:00